User: anonymous   Login
Location: Unspecified
(0.0000°N, 0.0000°E)
Time: 06:58:33
(UTC+00:00)
Language:

AIST 2 - Orbit

View from above orbital plane
View from above orbital plane
View from above satellite
View from above satellite

Ground track
Ground track

The orbit data is extracted from the following two-line orbital elements,

1 39133U 13015D   17202.93817932 +.00000145 +00000-0 +22992-4 0  9991
2 39133 064.8725 175.7320 0038116 276.3874 083.2905 15.04306695233132
Epoch (UTC): 21 July 2017 22:30:58
Eccentricity: 0.0038116
inclination: 64.8725°
perigee height: 527 km
apogee height: 580 km
right ascension of ascending node: 175.7320°
argument of perigee: 276.3874°
revolutions per day: 15.04306695
mean anomaly at epoch: 83.2905°
orbit number at epoch: 23313

The dashed part of the orbit path shows where the satellite is in the earth's shadow,  

DLR